Location: Quedlinburg
(51.7921°N, 11.1414°E)
Time: 07:28:24
(UTC+02:00)

RS-44 - Pass Details

Date: 21 March 2026
Orbit: 1175 x 1510 km, 82.5° (Epoch: 13 April)

Event Time Altitude Azimuth Distance (km) Brightness Sun altitude
Rises 04:38:02 0° 341° (NNW) 4,464 ? -15.7°
Reaches altitude 10° 04:42:18 10° 321° (NW) 3,544 ? -15.0°
Maximum altitude 04:46:37 15° 290° (WNW) 3,197 ? -14.4°
Enters shadow 04:48:31 14° 276° (W) 3,292 ? -14.1°
